Regional Weather Roundup
Issued by NWS

Home | Current Version | Previous Version | Text Only | Print | Product List | Glossary On
Versions: 1 2 3 4 5 6 7 8 9 10 11 12 13 14 15 16 17 18 19 20 21 22 23 24 25 26 27 28 29 30 31 32 33 34 35 36 37 38 39 40 41 42 43 44 45 46 47 48 49 50
000
ASUS43 KDMX 281106
RWRIA

WEATHER ROUNDUP FOR IOWA
NATIONAL WEATHER SERVICE DES MOINES IA
600 AM CDT FRI APR 28 2017

NOTE: "FAIR" INDICATES FEW OR NO CLOUDS BELOW 12,000 FEET WITH NO
SIGNIFICANT WEATHER AND/OR OBSTRUCTIONS TO VISIBILITY.

* - THESE STATIONS ARE NOT NWS STATIONS...THUS NOT UNDER NWS
QUALITY CONTROL.  THEY ALSO DO NOT REPORT WEATHER SUCH
AS PRECIPITATION OR FOG.

IAZ001>003-012>014-020>022-031>034-043>046-281200-
   NORTHWEST IOWA

CITY           SKY/WX    TMP DP  RH WIND       PRES   REMARKS
CARROLL *      CLOUDY    36  30  80 E12       29.84F WCI  27
CHEROKEE *     CLOUDY    29  28  95 CALM      29.86R
DENISON *      CLOUDY    36  28  75 E12G18    29.84S WCI  27
LE MARS *      PTCLDY    32  27  80 NE6       29.85S WCI  26
ORANGE CITY *  CLOUDY    28  27  93 CALM      29.84R
SHELDON *      CLOUDY    28  27  93 NE7       29.83S WCI  21
SIOUX CITY     MOCLDY    33  28  81 E6        29.83F WCI  28
SPENCER        CLEAR     25  23  92 N7        29.84F WCI  17
STORM LAKE *   CLOUDY    30  27  86 E8        29.84S WCI  23
$$

IAZ055>058-069>071-079>083-090>094-281200-
   SOUTHWEST IOWA

CITY           SKY/WX    TMP DP  RH WIND       PRES   REMARKS
ATLANTIC *     CLOUDY    39  32  75 NE9G17    29.80S WCI  33
AUDUBON *      CLOUDY    36  30  80 E13       29.82F WCI  27
CLARINDA *     CLOUDY    43  39  87 NE13      29.76F
COUNCIL BLFS * MIX PCPN  41  36  81 NE13G20   29.78R
CRESTON *      CLOUDY    41  34  75 NE15      29.81F
HARLAN  *      CLOUDY    37  30  75 NE10G17   29.83F WCI  30
LAMONI         CLOUDY    42  35  76 NE14      29.79S
RED OAK *      MIX PCPN  43  36  75 NE16G23   29.76F
SHENANDOAH *   CLOUDY    43  39  87 NE16G23   29.74F
$$

IAZ047>049-059>061-072>074-084-281200-
   CENTRAL IOWA

CITY           SKY/WX    TMP DP  RH WIND       PRES   REMARKS
AMES           CLOUDY    35  30  82 NE9       29.87S WCI  28
ANKENY *       CLOUDY    36  28  75 NE10      29.87F WCI  28
BOONE *        CLOUDY    34  30  86 E10       29.85S WCI  26
CHARITON *     CLOUDY    41  34  75 E8        29.83R
DES MOINES     CLOUDY    39  30  70 NE15      29.84F WCI  31
GRINNELL*      CLOUDY    36  32  84 NE8       29.88S WCI  30
KNOXVILLE *    CLOUDY    41  32  70 E10       29.83F
MARSHALLTOWN   MOCLDY    32  29  88 E6        29.87S WCI  26
NEWTON *       CLOUDY    36  30  80 NE13      29.86S WCI  27
PELLA *        CLOUDY    40  33  76 NE5       29.87S
PERRY *        CLOUDY    37  29  75 E10       29.86F WCI  29
$$

IAZ004>006-015-016-023>025-035-036-281200-
   NORTH CENTRAL IOWA

CITY           SKY/WX    TMP DP  RH WIND       PRES   REMARKS
ALGONA *       CLEAR     28  28 100 E3        29.85S
CLARION *      CLOUDY    27  27 100 NE7       29.85F WCI  19
ESTHERVILLE    CLEAR     24  23  96 CALM      29.85S
FORT DODGE *   CLOUDY    28  21  74 E3        29.87S
MASON CITY     CLOUDY    23  21  92 CALM      29.87S
FOREST CITY *    N/A     27  19  74 CALM      29.85S
WEBSTER CITY * CLOUDY    28  27  93 E3        29.85S
IOWA FALLS *     N/A     30  27  86 E5        29.88S WCI  25
$$

IAZ007>011-017>019-026>030-037>042-050>054-066-281200-
   NORTHEAST IOWA

CITY           SKY/WX    TMP DP  RH WIND       PRES   REMARKS
CEDAR RAPIDS   CLOUDY    36  32  85 N10       29.87S WCI  28
CHARLES CITY * CLOUDY    30  27  86 N6        29.86F WCI  24
CLINTON *      CLOUDY    36  33  89 N5        29.90S WCI  32
DECORAH *      CLEAR     30  27  86 CALM      29.85S
DUBUQUE        CLEAR     31  28  89 N8        29.88R WCI  23
MONTICELLO *   CLEAR     34  30  86 N5        29.89R WCI  30
WATERLOO       CLOUDY    29  24  82 CALM      29.88R
$$

IAZ064-065-067-068-078-281200-
   EAST CENTRAL IOWA

CITY           SKY/WX    TMP DP  RH WIND       PRES   REMARKS
DAVENPORT      CLOUDY    36  31  82 E5        29.90S WCI  32
IOWA CITY      CLOUDY    40  32  73 N7        29.89F
MT. PLEASANT * CLEAR     39  35  87 NE8       29.87S WCI  33
MUSCATINE *    PTCLDY    39  32  75 NE8       29.89S WCI  34
QUAD CITIES    PTCLDY    37  33  85 E3        29.90R
$$

IAZ062-063-075>077-085>089-095>099-281200-
   SOUTHEAST IOWA

CITY           SKY/WX    TMP DP  RH WIND       PRES   REMARKS
BURLINGTON     CLEAR     42  37  82 NE13      29.85F
FAIRFIELD *    PTCLDY    39  32  75 NE9       29.85S WCI  33
FORT MADISON * CLEAR     43  37  81 NE9       29.86F
KEOKUK *       PTCLDY    45  43  93 NE7       29.83F
OSKALOOSA *    CLOUDY    39  34  82 E9        29.86R WCI  32
CENTERVILLE *  CLOUDY    39  36  87 E8        29.84R WCI  34
OTTUMWA        MOCLDY    40  34  79 NE10      29.85R WCI  33
WASHINGTON *   PTCLDY    37  34  87 E9        29.88R WCI  31
$$

ABBREVIATIONS USED IN REMARKS
   TC - TEMPERATURES IN CELSIUS
  WCI - WIND CHILL INDEX
   HX - HEAT INDEX
  VSB - VISIBILITY
$$




USA.gov is the U.S. government's official web portal to all federal, state and local government web resources and services.